Location: Laura�t
(43.9341°N, 0.2497°E)
Time: 23:38:36
(UTC+00:00)

Cosmos 2333 Rocket - Pass Details

Date: 03 March 2021
Orbit: 837 x 864 km, 70.8° (Epoch: 17 April)

Event Time Altitude Azimuth Distance (km) Brightness Sun altitude
Rises 18:46:08 0° 168° (SSE) 3,383 5.2 -10.9°
Reaches altitude 10° 18:48:57 10° 155° (SSE) 2,457 4.4 -11.4°
Maximum altitude 18:53:26 25° 102° (ESE) 1,656 3.1 -12.2°
Drops below altitude 10° 18:57:57 10° 49° (NE) 2,486 4.2 -13.0°
Sets 19:00:49 0° 37° (NE) 3,431 5.0 -13.5°
